N5BAB Weather Reports


time (UTC)temp
F
wind
direction
speed
knots
gust
knots
rain 1hr
in
rain 24hr
in
rain mn
in
humidity
%
barometer
mb
20260502164041 70 306 3.5 11.3 0.00 0.00 0.00 52 1020.8
20260502163541 70 306 3.5 10.4 0.00 0.00 0.00 51 1020.8
20260502163057 70 290 4.3 13.0 0.00 0.00 0.00 51 1020.8
20260502162541 69 83 7.0 13.0 0.00 0.00 0.00 52 1020.8
20260502162040 69 101 3.5 11.3 0.00 0.00 0.00 52 1020.8
20260502161551 69 305 4.3 11.3 0.00 0.00 0.00 53 1020.8
20260502161041 69 49 1.7 11.3 0.00 0.00 0.00 58 1020.7
20260502160542 69 11 6.1 11.3 0.00 0.00 0.00 56 1020.8
20260502152039 67 276 4.3 13.0 0.00 0.00 0.00 64 1020.5
20260502151611 66 315 4.3 9.6 0.00 0.00 0.00 66 1020.5
20260502151041 66 66 2.6 8.7 0.00 0.00 0.00 66 1020.5
20260502150541 65 41 2.6 9.6 0.00 0.00 0.00 67 1020.6
20260502130541 53 41 0.9 1.7 0.00 0.01 0.00 93 1020.1
20260502123541 50 31 0.9 2.6 0.00 0.01 0.00 92 1019.5
20260502123056 50 57 0.0 1.7 0.00 0.01 0.00 91 1019.4
20260502122541 49 143 0.9 2.6 0.00 0.01 0.00 91 1019.4
20260502122041 49 54 0.9 2.6 0.00 0.01 0.00 91 1019.3
20260502121557 49 66 0.9 2.6 0.00 0.01 0.00 91 1019.3
20260502121041 49 28 0.9 1.7 0.00 0.01 0.00 90 1019.2
20260502120541 49 98 0.9 1.7 0.00 0.01 0.00 90 1019.2
20260502115543 49 70 0.0 1.7 0.00 0.02 0.00 90 1019.0
20260502115043 49 127 0.0 1.7 0.00 0.02 0.00 90 1018.8
20260502114603 49 83 0.0 2.6 0.00 0.02 0.00 90 1018.8
20260502114042 49 83 0.0 2.6 0.00 0.02 0.00 90 1018.8
20260502113541 49 121 1.7 2.6 0.00 0.02 0.00 90 1018.7
20260502113103 49 134 0.9 2.6 0.00 0.02 0.00 90 1018.7
20260502112542 50 132 0.9 3.5 0.00 0.02 0.00 90 1018.6
20260502112042 50 109 0.9 3.5 0.00 0.02 0.00 90 1018.5
20260502111557 50 127 1.7 3.5 0.00 0.02 0.00 90 1018.5
20260502111041 50 136 0.9 2.6 0.00 0.02 0.00 90 1018.4
20260502110541 50 148 0.0 2.6 0.00 0.02 0.00 90 1018.4
20260502110053 50 127 0.9 2.6 0.00 0.02 0.00 90 1018.2
20260502105543 50 134 0.9 2.6 0.00 0.02 0.00 90 1018.3
20260502105045 50 83 0.0 1.7 0.00 0.02 0.00 90 1018.3
20260502104606 50 57 0.0 1.7 0.00 0.02 0.00 90 1018.2
20260502104043 50 127 0.9 1.7 0.00 0.02 0.00 90 1018.0
20260502103543 50 127 0.0 1.7 0.00 0.02 0.00 90 1018.0
20260502103051 51 143 0.9 1.7 0.00 0.02 0.00 90 1017.9
20260502102545 51 127 0.9 1.7 0.00 0.02 0.00 90 1017.8
20260502102040 51 0 0.0 1.7 0.00 0.02 0.00 89 1017.8
20260502101607 51 127 0.9 1.7 0.00 0.02 0.00 89 1017.9
20260502101043 51 113 0.9 1.7 0.00 0.02 0.00 89 1017.9
20260502100540 51 83 0.0 1.7 0.00 0.02 0.00 89 1017.8
20260502091045 53 127 0.9 1.7 0.00 0.02 0.00 89 1017.5
20260502090546 53 127 0.9 1.7 0.00 0.02 0.00 89 1017.5
20260502071038 55 116 0.0 1.7 0.00 0.04 0.00 88 1017.7
20260502070542 56 0 0.0 1.7 0.00 0.04 0.00 88 1017.8
20260502070106 56 0 0.9 1.7 0.00 0.04 0.00 88 1017.8
20260502065540 56 359 0.0 1.7 0.00 0.07 0.00 88 1017.9
20260502065038 56 359 0.0 1.7 0.00 0.07 0.00 88 1017.8
20260502064556 56 83 0.0 1.7 0.00 0.07 0.00 88 1017.7
20260502064041 56 31 0.0 1.7 0.00 0.07 0.00 88 1017.8
20260502063543 56 0 0.0 1.7 0.00 0.07 0.00 88 1017.8
20260502063057 56 119 0.9 1.7 0.00 0.07 0.00 88 1017.9
20260502062542 56 95 0.0 1.7 0.00 0.07 0.00 88 1017.9
20260502062040 56 0 0.0 1.7 0.00 0.07 0.00 88 1017.8
20260502061549 56 0 0.9 1.7 0.00 0.07 0.00 87 1017.8
20260502061038 56 0 0.0 1.7 0.00 0.07 0.00 87 1017.8
20260502060538 56 58 0.0 1.7 0.00 0.07 0.00 87 1017.7
20260502060052 56 41 0.0 1.7 0.00 0.07 0.00 87 1017.8
20260502055539 56 58 0.9 2.6 0.00 0.07 0.00 87 1017.9
20260502055045 56 119 0.9 2.6 0.00 0.07 0.00 87 1017.9
20260502054600 56 121 1.7 2.6 0.00 0.07 0.00 87 1018.0
20260502054044 56 119 0.9 1.7 0.00 0.07 0.00 86 1018.1
20260502053541 56 41 0.0 1.7 0.00 0.07 0.00 87 1018.1
20260502053045 56 83 0.0 1.7 0.00 0.07 0.00 87 1018.1
20260502052541 56 116 0.0 1.7 0.00 0.07 0.00 87 1018.0
20260502052039 56 101 0.9 1.7 0.00 0.07 0.00 87 1018.0
20260502051550 56 359 0.0 1.7 0.00 0.07 0.00 87 1018.0
20260502051041 56 306 0.0 1.7 0.00 0.07 0.00 87 1018.0
20260502050538 56 83 0.0 2.6 0.00 0.07 0.00 87 1018.0
20260502050051 56 0 0.0 4.3 0.00 0.07 0.00 87 1017.9
20260502045541 56 299 0.0 4.3 0.00 0.07 0.07 87 1017.9
20260502045041 56 303 1.7 4.3 0.00 0.07 0.07 87 1017.9
20260502044550 57 331 1.7 4.3 0.00 0.07 0.07 87 1017.8
20260502044038 57 299 1.7 4.3 0.00 0.07 0.07 87 1017.7
20260502043542 57 299 1.7 4.3 0.00 0.07 0.07 86 1017.6
20260502043110 57 309 0.9 4.3 0.00 0.07 0.07 86 1017.6
20260502042542 57 0 1.7 3.5 0.00 0.07 0.07 86 1017.6
20260502042039 57 299 0.0 2.6 0.00 0.07 0.07 86 1017.5
20260502041613 57 0 0.0 3.5 0.00 0.07 0.07 86 1017.5
20260502041038 57 291 0.9 3.5 0.00 0.07 0.07 86 1017.5
20260502040540 57 265 0.0 1.7 0.00 0.07 0.07 86 1017.4
20260502040058 57 0 0.0 1.7 0.00 0.07 0.07 86 1017.4
20260502035538 58 0 0.0 1.7 0.00 0.07 0.07 86 1017.3
20260502035043 58 58 0.0 1.7 0.00 0.07 0.07 86 1017.3
20260502034552 58 0 0.0 1.7 0.00 0.07 0.07 86 1017.4
20260502034042 58 101 0.0 1.7 0.00 0.07 0.07 86 1017.3
20260502033538 58 109 0.0 1.7 0.00 0.07 0.07 86 1017.3
20260502033053 58 143 0.0 1.7 0.00 0.07 0.07 85 1017.3
20260502032538 58 83 0.9 1.7 0.00 0.07 0.07 85 1017.3
20260502032038 58 66 0.0 1.7 0.00 0.07 0.07 85 1017.4
20260502031549 58 0 0.0 1.7 0.00 0.07 0.07 84 1017.3
20260502031038 58 299 0.9 1.7 0.00 0.07 0.07 84 1017.2
20260502030542 58 282 0.0 2.6 0.00 0.07 0.07 84 1017.2
20260502030109 58 0 0.0 2.6 0.00 0.07 0.07 84 1017.2
20260502025538 58 0 0.0 2.6 0.00 0.07 0.07 84 1017.2
20260502025044 59 282 0.9 2.6 0.00 0.07 0.07 84 1017.2
20260502024602 59 0 0.0 1.7 0.00 0.07 0.07 84 1017.0
20260502024038 59 0 0.0 1.7 0.00 0.07 0.07 84 1017.0
20260502023542 59 0 0.0 1.7 0.00 0.07 0.07 83 1016.8
20260502023125 59 0 0.0 1.7 0.00 0.07 0.07 83 1016.8
20260502022544 59 0 0.0 1.7 0.00 0.07 0.07 83 1016.7
20260502022042 59 0 0.0 1.7 0.00 0.07 0.07 82 1016.6
20260502021550 59 143 0.9 1.7 0.00 0.07 0.07 82 1016.6
20260502021042 59 0 0.0 1.7 0.00 0.07 0.07 81 1016.5
20260502020543 60 195 0.0 1.7 0.00 0.07 0.07 81 1016.4
20260502020052 60 288 0.0 1.7 0.00 0.07 0.07 81 1016.1
20260502015545 60 34 0.9 1.7 0.00 0.07 0.07 81 1016.0
20260502015042 60 34 0.0 1.7 0.00 0.07 0.07 80 1015.9
20260502014551 60 152 0.9 1.7 0.00 0.07 0.07 80 1016.0
20260502014038 60 155 0.0 1.7 0.00 0.07 0.07 80 1016.0
20260502013538 60 168 0.9 1.7 0.00 0.07 0.07 79 1016.0
20260502013057 60 0 0.9 1.7 0.00 0.07 0.07 78 1015.9
20260502012538 61 155 0.0 1.7 0.00 0.07 0.07 78 1015.9
20260502012039 61 148 0.0 1.7 0.00 0.07 0.07 77 1015.9
20260502011602 61 0 0.0 1.7 0.00 0.07 0.07 77 1015.7
20260502011038 61 0 0.0 1.7 0.00 0.07 0.07 76 1015.6
20260502010538 61 0 0.0 1.7 0.00 0.07 0.07 76 1015.5
20260502010052 61 0 0.0 1.7 0.00 0.07 0.07 75 1015.7
20260502005538 61 136 0.0 2.6 0.00 0.07 0.07 75 1015.6
20260502005042 61 0 0.0 2.6 0.00 0.07 0.07 75 1015.6
20260502004554 62 127 0.0 3.5 0.00 0.07 0.07 75 1015.6
20260502004042 62 98 0.9 4.3 0.00 0.07 0.07 74 1015.6
20260502003540 62 116 0.9 4.3 0.00 0.07 0.07 74 1015.4
20260502003050 62 127 1.7 4.3 0.00 0.07 0.07 74 1015.4
20260502002541 62 98 0.9 4.3 0.00 0.07 0.07 74 1015.3
20260502002041 62 116 1.7 5.2 0.00 0.07 0.07 74 1015.2
20260502001558 63 121 1.7 6.1 0.00 0.07 0.07 74 1015.3
20260502001043 63 116 1.7 6.1 0.00 0.07 0.07 74 1015.4
20260502000541 63 105 1.7 4.3 0.00 0.07 0.07 74 1015.6
20260502000101 63 109 1.7 4.3 0.00 0.07 0.07 73 1015.9
20260501235538 63 155 0.9 4.3 0.00 0.07 0.07 72 1015.9
20260501235043 63 127 1.7 4.3 0.00 0.07 0.07 72 1015.8
20260501234553 63 138 1.7 7.8 0.00 0.07 0.07 72 1015.7
20260501234038 64 141 2.6 7.8 0.00 0.07 0.07 71 1015.7
20260501233541 64 180 4.3 7.8 0.00 0.07 0.07 71 1015.5
20260501233104 64 131 2.6 6.1 0.00 0.07 0.07 71 1015.1
20260501232541 64 127 2.6 6.1 0.00 0.07 0.07 71 1014.9
20260501232041 64 100 2.6 5.2 0.00 0.07 0.07 71 1015.1
20260501231620 63 107 1.7 6.1 0.00 0.07 0.07 70 1015.1
20260501231042 63 123 2.6 6.1 0.00 0.07 0.07 70 1015.2
20260501230542 63 119 1.7 8.7 0.00 0.07 0.07 70 1015.4
20260501230116 63 140 2.6 8.7 0.00 0.07 0.07 69 1015.3
20260501225541 64 119 1.7 11.3 0.00 0.07 0.07 68 1015.1
20260501225041 63 72 1.7 11.3 0.00 0.07 0.07 67 1014.6
20260501224557 64 45 6.1 11.3 0.00 0.07 0.07 66 1014.3
20260501224040 64 123 3.5 10.4 0.00 0.07 0.07 67 1014.0
20260501223541 64 83 4.3 13.0 0.00 0.07 0.07 66 1013.9
20260501223055 64 77 5.2 13.0 0.00 0.07 0.07 66 1014.0
20260501222542 64 94 4.3 9.6 0.00 0.07 0.07 66 1014.0
20260501222042 64 61 4.3 9.6 0.00 0.07 0.07 66 1014.2
20260501221604 64 28 6.1 9.6 0.00 0.07 0.07 65 1014.3
20260501221041 64 70 1.7 8.7 0.00 0.07 0.07 67 1014.3
20260501220541 65 83 2.6 8.7 0.00 0.07 0.07 65 1014.3
20260501220100 65 83 2.6 7.8 0.00 0.07 0.07 68 1014.3
20260501215543 64 98 0.9 8.7 0.00 0.07 0.07 67 1014.3
20260501215041 64 58 3.5 8.7 0.00 0.07 0.07 64 1014.3
20260501214551 64 87 4.3 10.4 0.00 0.07 0.07 63 1014.3
20260501214040 64 41 4.3 11.3 0.00 0.07 0.07 64 1014.1
20260501213542 64 105 6.1 12.2 0.00 0.07 0.07 62 1014.3
20260501213054 64 58 7.8 14.8 0.00 0.07 0.07 61 1014.2
20260501212541 64 75 7.0 14.8 0.00 0.07 0.07 62 1014.3
20260501212041 64 26 7.8 14.8 0.00 0.07 0.07 60 1014.5
20260501211551 65 83 4.3 10.4 0.00 0.07 0.07 60 1014.4
20260501211041 65 91 6.1 16.5 0.00 0.07 0.07 61 1014.5
20260501210541 65 55 7.8 16.5 0.00 0.07 0.07 61 1014.4
20260501210051 66 83 6.1 14.8 0.00 0.07 0.07 61 1014.1
20260501205546 65 65 7.8 21.7 0.00 0.07 0.07 62 1013.9
20260501205041 64 47 8.7 28.7 0.00 0.07 0.07 59 1013.7
20260501204551 64 111 11.3 28.7 0.00 0.07 0.07 58 1013.6
20260501204045 64 91 11.3 28.7 0.00 0.07 0.07 58 1013.5
20260501203542 64 71 9.6 18.2 0.00 0.07 0.07 58 1013.9
20260501203053 65 105 7.8 18.2 0.00 0.07 0.07 62 1013.9
20260501202542 64 49 6.1 13.0 0.00 0.07 0.07 66 1014.0
20260501202042 64 70 7.8 15.6 0.00 0.07 0.07 65 1014.0
20260501201547 64 78 6.1 15.6 0.00 0.07 0.07 67 1014.3
20260501201043 63 74 6.1 13.9 0.00 0.07 0.07 67 1014.2
20260501200541 63 78 6.1 18.2 0.00 0.07 0.07 67 1014.1
20260501200053 62 62 10.4 18.2 0.00 0.07 0.07 66 1014.5
20260501195540 62 39 7.8 18.2 0.00 0.07 0.07 67 1014.6
20260501195041 62 66 5.2 18.2 0.00 0.07 0.07 68 1014.7
20260501194552 62 101 7.0 17.4 0.00 0.07 0.07 69 1014.7
20260501194042 62 88 5.2 17.4 0.00 0.07 0.07 71 1014.8
20260501193544 61 95 7.8 17.4 0.00 0.07 0.07 70 1015.0
20260501193052 62 89 7.0 14.8 0.00 0.07 0.07 72 1015.1
20260501192541 61 53 5.2 12.2 0.00 0.07 0.07 73 1015.2
20260501192042 61 26 6.1 12.2 0.00 0.07 0.07 73 1015.6
20260501191551 60 62 7.0 12.2 0.00 0.07 0.07 73 1015.8
20260501191044 60 66 3.5 12.2 0.00 0.07 0.07 75 1015.8
20260501190541 60 66 5.2 12.2 0.00 0.07 0.07 74 1016.1
20260501190054 60 57 4.3 10.4 0.00 0.07 0.07 75 1015.9
20260501185540 60 74 4.3 12.2 0.00 0.07 0.07 76 1016.3
20260501185041 60 99 4.3 12.2 0.00 0.07 0.07 76 1015.9
20260501184548 60 101 7.0 12.2 0.00 0.07 0.07 75 1016.0
20260501184043 60 80 3.5 12.2 0.00 0.07 0.07 76 1016.3
20260501183542 60 78 5.2 12.2 0.00 0.07 0.07 76 1016.1
20260501183055 60 88 4.3 12.2 0.00 0.07 0.07 77 1016.5
20260501182541 60 35 6.1 12.2 0.00 0.07 0.07 78 1016.5
20260501182042 60 67 5.2 9.6 0.00 0.07 0.07 78 1016.6
20260501181556 59 55 3.5 11.3 0.00 0.07 0.07 78 1016.9
20260501181042 59 72 3.5 11.3 0.00 0.07 0.07 78 1017.1
20260501180538 59 47 4.3 9.6 0.00 0.07 0.07 79 1017.1
20260501180053 59 33 3.5 8.7 0.00 0.07 0.07 79 1017.3
20260501175543 59 87 3.5 9.6 0.00 0.07 0.07 81 1017.4
20260501175042 59 89 3.5 11.3 0.00 0.07 0.07 79 1017.1
20260501174557 59 62 6.1 11.3 0.00 0.07 0.07 79 1017.3
20260501174042 59 69 2.6 7.8 0.00 0.07 0.07 81 1017.2
20260501173542 59 59 2.6 8.7 0.00 0.07 0.07 81 1017.3
20260501173105 59 60 3.5 8.7 0.00 0.07 0.07 82 1017.2
20260501172541 58 70 4.3 8.7 0.00 0.07 0.07 83 1017.2
20260501172041 58 53 3.5 8.7 0.00 0.07 0.07 83 1017.3
20260501171550 58 92 5.2 9.6 0.00 0.07 0.07 83 1017.5
20260501171042 58 67 5.2 9.6 0.00 0.07 0.07 84 1017.5
20260501170541 58 58 2.6 7.8 0.00 0.07 0.07 84 1017.6